CZ-6A DEB, 61425

Orbit data source: Space-Track

CZ-6A DEB, 61425 is space debris in LEO originally from a launch on Tue, 06 Aug 2024 UTC launched from the Taiyaun Space Center, China (TSC). Debris objects in space refer to the collection of defunct objects orbiting the Earth. Examples of debris include non-operational satellites, rocket bodies, and fragments generated from explosions, collisions, or faulty payload assembly.

Loading next visibility...
Identifier
61425, 2024-140YS
Orbit
LEO
Country
Flag of CNCN / PRC
Related business
Manufacturer
SAST
Mission
Spacecraft
Bus & Motor
Unknown
Mass
Unknown
Launch date (UTC)
2024-08-06 (2 years ago)
Launch vehicle
Unknown
Launch site
Taiyaun Space Center, China (TSC)
Object type
Payload
Rocket body
Debris
Shape & HBR
Unknown shape, 0.1 m
Radar Cross Section
Medium (>0.1 m² and <1 m²)

Expand to show TLE details & history
Last TLE update: 15 hours ago

TLE from 15 hours ago
0 CZ-6A DEB
1 61425U 24140YS  26171.24273713  .00000255  00000-0  11531-3 0  9991
2 61425  89.0104 275.1946 0053474 194.3584 165.6089 14.18401775 94526
Epoch: 2026-06-20T05:49Z
TLE epoch observation values (Epoch: 2026-06-20T05:49:32.488Z)
Latitude
0.00001°
Longitude
-80.65093°
Altitude
871.174 km
Speed
7.397 km/s
True Right ascension
18h 20m 46s
True Declination
0° 00' 00"
Sunlit
Object was in full shadow at epoch
Visualization orbit readout
Latitude
Unknown
Longitude
Unknown
Altitude
Unknown
Speed
Unknown
Apparent Right ascension
Unknown
Apparent Declination
Unknown
Sunlit
N/A
Visualization observer readout
Local Sidereal Time
07:23:01
Azimuth
Unknown
Elevation
Unknown
Doppler factor
Unknown
Orbital elements
Apogee altitude
866.249 km
Perigee altitude
789.184 km
Semi-major axis
7,205.853 km
Eccentricity
0.00535
Inclination
89.0104°
RAAN
275.1946°
Arg. of periapsis
194.3584°
True anomaly
165.76022°
Mean anomaly
165.6089°
Eccentric anomaly
165.68466°
Mean motion
3.54826 °/min
Orbital period
101.46 mins
BSTAR
0.00011531
Loading maneuver chart data...
Computing Atmospheric mass density...
Loading historical data...
Loading historical data...
Loading historical data...
Loading historical data...
Loading historical data...
Loading historical data...
Loading historical data...

Documentation

Showing up to 5 results
|